| time (UTC) | temp C | wind direction | speed KPH | gust KPH | rain 1hr cm | rain 24hr cm | rain mn cm | humidity % | barometer mb |
| 20260505165954 | 13 | 196 | 1.6 | 3.2 | 0.00 | 0.00 | 0.00 | 80 | 1013.8 |
| 20260505165014 | 13 | 325 | 1.6 | 4.8 | 0.00 | 0.00 | 0.00 | 80 | 1013.7 |
| 20260505163954 | 13 | 335 | 1.6 | 8.0 | 0.00 | 0.00 | 0.00 | 81 | 1013.7 |
| 20260505163015 | 12 | 134 | 0.0 | 3.2 | 0.00 | 0.00 | 0.00 | 84 | 1013.7 |
| 20260505161954 | 12 | 121 | 0.0 | 1.6 | 0.00 | 0.00 | 0.00 | 87 | 1013.7 |
| 20260505160956 | 11 | 67 | 0.0 | 1.6 | 0.00 | 0.00 | 0.00 | 86 | 1013.7 |
| 20260505152952 | 10 | 5 | 0.0 | 1.6 | 0.00 | 0.00 | 0.00 | 90 | 1013.6 |
| 20260505152014 | 10 | 0.0 | 0.0 | 0.00 | 0.00 | 0.00 | 90 | 1013.5 | |
| 20260505150955 | 10 | 5 | 0.0 | 1.6 | 0.00 | 0.00 | 0.00 | 90 | 1013.4 |
| 20260505124954 | 10 | 342 | 0.0 | 1.6 | 0.00 | 0.00 | 0.00 | 88 | 1012.7 |
| 20260505123955 | 10 | 342 | 0.0 | 1.6 | 0.00 | 0.00 | 0.00 | 87 | 1012.7 |
| 20260505122956 | 10 | 9 | 0.0 | 1.6 | 0.00 | 0.00 | 0.00 | 87 | 1012.8 |
| 20260505121955 | 10 | 0.0 | 0.0 | 0.00 | 0.00 | 0.00 | 86 | 1012.8 | |
| 20260505120954 | 10 | 6 | 0.0 | 1.6 | 0.00 | 0.00 | 0.00 | 86 | 1012.9 |
| 20260505115954 | 10 | 14 | 0.0 | 1.6 | 0.00 | 0.00 | 0.00 | 85 | 1012.9 |
| 20260505115015 | 10 | 240 | 0.0 | 4.8 | 0.00 | 0.00 | 0.00 | 85 | 1012.9 |
| 20260505113955 | 10 | 310 | 0.0 | 3.2 | 0.00 | 0.00 | 0.00 | 85 | 1012.9 |
| 20260505112954 | 10 | 0.0 | 0.0 | 0.00 | 0.00 | 0.00 | 84 | 1012.9 | |
| 20260505111954 | 10 | 0.0 | 1.6 | 0.00 | 0.00 | 0.00 | 84 | 1012.8 | |
| 20260505110955 | 10 | 326 | 0.0 | 4.8 | 0.00 | 0.00 | 0.00 | 84 | 1012.7 |
| 20260505101954 | 10 | 311 | 1.6 | 6.4 | 0.00 | 0.00 | 0.00 | 84 | 1012.8 |
| 20260505101034 | 10 | 318 | 1.6 | 4.8 | 0.00 | 0.00 | 0.00 | 84 | 1012.8 |
| 20260505095955 | 10 | 349 | 0.0 | 3.2 | 0.00 | 0.00 | 0.00 | 83 | 1012.8 |
| 20260505095015 | 10 | 303 | 0.0 | 3.2 | 0.00 | 0.00 | 0.00 | 82 | 1013.0 |
| 20260505093955 | 10 | 351 | 0.0 | 1.6 | 0.00 | 0.00 | 0.00 | 82 | 1012.9 |
| 20260505092954 | 10 | 51 | 0.0 | 1.6 | 0.00 | 0.00 | 0.00 | 82 | 1012.9 |
| 20260505091955 | 10 | 345 | 0.0 | 3.2 | 0.00 | 0.00 | 0.00 | 81 | 1013.2 |
| 20260505090954 | 10 | 343 | 1.6 | 4.8 | 0.00 | 0.00 | 0.00 | 82 | 1013.4 |
| 20260505085955 | 10 | 348 | 1.6 | 6.4 | 0.00 | 0.00 | 0.00 | 81 | 1013.3 |
| 20260505084953 | 10 | 334 | 0.0 | 6.4 | 0.00 | 0.00 | 0.00 | 81 | 1013.3 |
| 20260505083955 | 10 | 339 | 1.6 | 6.4 | 0.00 | 0.00 | 0.00 | 82 | 1013.3 |
| 20260505082954 | 10 | 341 | 3.2 | 6.4 | 0.00 | 0.00 | 0.00 | 84 | 1013.4 |
| 20260505081956 | 10 | 326 | 1.6 | 4.8 | 0.00 | 0.00 | 0.00 | 85 | 1013.5 |
| 20260505080955 | 10 | 322 | 1.6 | 6.4 | 0.00 | 0.00 | 0.00 | 87 | 1013.6 |
| 20260505075954 | 10 | 337 | 1.6 | 4.8 | 0.00 | 0.00 | 0.00 | 88 | 1013.5 |
| 20260505074954 | 10 | 351 | 1.6 | 4.8 | 0.00 | 0.00 | 0.00 | 89 | 1013.6 |
| 20260505073954 | 10 | 331 | 0.0 | 3.2 | 0.00 | 0.00 | 0.00 | 89 | 1013.5 |
| 20260505073035 | 10 | 308 | 0.0 | 4.8 | 0.00 | 0.00 | 0.00 | 88 | 1013.5 |
| 20260505071955 | 10 | 319 | 0.0 | 3.2 | 0.00 | 0.00 | 0.00 | 88 | 1013.3 |
| 20260505070954 | 10 | 6 | 0.0 | 3.2 | 0.00 | 0.00 | 0.00 | 89 | 1013.4 |
| 20260505065955 | 10 | 292 | 0.0 | 3.2 | 0.00 | 0.00 | 0.00 | 88 | 1013.4 |
| 20260505064955 | 10 | 332 | 0.0 | 3.2 | 0.00 | 0.00 | 0.00 | 88 | 1013.4 |
| 20260505063955 | 10 | 351 | 1.6 | 4.8 | 0.00 | 0.00 | 0.00 | 87 | 1013.3 |
| 20260505062953 | 10 | 360 | 0.0 | 1.6 | 0.00 | 0.00 | 0.00 | 86 | 1013.3 |
| 20260505062014 | 10 | 357 | 0.0 | 4.8 | 0.00 | 0.00 | 0.00 | 85 | 1013.2 |
| 20260505060955 | 10 | 318 | 0.0 | 3.2 | 0.00 | 0.00 | 0.00 | 85 | 1013.3 |
| 20260505055955 | 11 | 345 | 0.0 | 3.2 | 0.00 | 0.00 | 0.00 | 84 | 1013.4 |
| 20260505055014 | 11 | 350 | 1.6 | 3.2 | 0.00 | 0.00 | 0.00 | 84 | 1013.4 |
| 20260505054035 | 11 | 315 | 1.6 | 3.2 | 0.00 | 0.00 | 0.00 | 84 | 1013.7 |
| 20260505053016 | 11 | 304 | 1.6 | 4.8 | 0.00 | 0.00 | 0.00 | 84 | 1013.8 |
| 20260505052014 | 11 | 339 | 1.6 | 4.8 | 0.00 | 0.00 | 0.00 | 84 | 1013.8 |
| 20260505050953 | 11 | 337 | 0.0 | 6.4 | 0.00 | 0.00 | 0.00 | 83 | 1013.9 |
| 20260505040955 | 11 | 306 | 1.6 | 3.2 | 0.00 | 0.00 | 0.00 | 80 | 1013.4 |
| 20260505035955 | 11 | 336 | 0.0 | 4.8 | 0.00 | 0.00 | 0.00 | 78 | 1013.2 |
| 20260505034954 | 11 | 342 | 0.0 | 3.2 | 0.00 | 0.00 | 0.00 | 78 | 1012.9 |
| 20260505033954 | 11 | 3 | 1.6 | 4.8 | 0.00 | 0.00 | 0.00 | 78 | 1012.9 |
| 20260505032956 | 12 | 343 | 1.6 | 6.4 | 0.00 | 0.00 | 0.00 | 77 | 1012.7 |
| 20260505032014 | 12 | 336 | 1.6 | 4.8 | 0.00 | 0.00 | 0.00 | 78 | 1012.8 |
| 20260505030955 | 12 | 323 | 1.6 | 6.4 | 0.00 | 0.00 | 0.00 | 77 | 1012.9 |
| 20260505025953 | 12 | 350 | 1.6 | 4.8 | 0.00 | 0.00 | 0.00 | 76 | 1012.8 |
| 20260505025017 | 12 | 327 | 1.6 | 4.8 | 0.00 | 0.00 | 0.00 | 75 | 1012.6 |
| 20260505023955 | 13 | 317 | 0.0 | 3.2 | 0.00 | 0.00 | 0.00 | 74 | 1012.7 |
| 20260505022954 | 13 | 17 | 0.0 | 4.8 | 0.00 | 0.00 | 0.00 | 72 | 1012.5 |
| 20260505021955 | 13 | 335 | 0.0 | 3.2 | 0.00 | 0.00 | 0.00 | 72 | 1012.5 |
| 20260505020955 | 13 | 14 | 0.0 | 3.2 | 0.00 | 0.00 | 0.00 | 72 | 1012.4 |
| 20260505015955 | 13 | 308 | 0.0 | 4.8 | 0.00 | 0.00 | 0.00 | 72 | 1012.4 |
| 20260505014955 | 14 | 1 | 1.6 | 4.8 | 0.00 | 0.00 | 0.00 | 71 | 1012.5 |
| 20260505013953 | 15 | 128 | 0.0 | 4.8 | 0.00 | 0.00 | 0.00 | 70 | 1012.4 |
| 20260505012954 | 15 | 209 | 0.0 | 3.2 | 0.00 | 0.00 | 0.00 | 70 | 1012.5 |
| 20260505011954 | 15 | 237 | 0.0 | 3.2 | 0.00 | 0.00 | 0.00 | 70 | 1012.6 |
| 20260505010954 | 16 | 225 | 0.0 | 3.2 | 0.00 | 0.00 | 0.00 | 69 | 1012.7 |
| 20260505005955 | 16 | 232 | 0.0 | 3.2 | 0.00 | 0.00 | 0.00 | 70 | 1012.7 |
| 20260505004955 | 16 | 224 | 1.6 | 4.8 | 0.00 | 0.00 | 0.00 | 67 | 1012.8 |
| 20260505003954 | 16 | 277 | 1.6 | 6.4 | 0.00 | 0.00 | 0.00 | 68 | 1012.9 |
| 20260505002954 | 16 | 243 | 1.6 | 4.8 | 0.00 | 0.00 | 0.00 | 67 | 1012.9 |
| 20260505001953 | 16 | 39 | 1.6 | 4.8 | 0.00 | 0.00 | 0.00 | 69 | 1012.9 |
| 20260505000955 | 15 | 294 | 1.6 | 11.3 | 0.00 | 0.00 | 0.00 | 69 | 1012.9 |
| 20260505000015 | 15 | 272 | 1.6 | 8.0 | 0.00 | 0.00 | 0.00 | 69 | 1012.8 |
| 20260504234954 | 16 | 188 | 1.6 | 11.3 | 0.00 | 0.00 | 0.00 | 70 | 1012.9 |
| 20260504233955 | 17 | 231 | 3.2 | 6.4 | 0.00 | 0.00 | 0.00 | 65 | 1012.8 |
| 20260504233014 | 16 | 268 | 1.6 | 9.7 | 0.00 | 0.00 | 0.00 | 69 | 1012.8 |
| 20260504231955 | 15 | 348 | 1.6 | 11.3 | 0.00 | 0.00 | 0.00 | 68 | 1012.9 |
| 20260504230955 | 16 | 330 | 1.6 | 6.4 | 0.00 | 0.00 | 0.00 | 66 | 1012.9 |
| 20260504230015 | 17 | 14 | 1.6 | 8.0 | 0.00 | 0.00 | 0.00 | 63 | 1012.9 |
| 20260504224955 | 17 | 230 | 1.6 | 8.0 | 0.00 | 0.00 | 0.00 | 62 | 1012.9 |
| 20260504224016 | 20 | 204 | 1.6 | 4.8 | 0.00 | 0.00 | 0.00 | 57 | 1013.0 |
| 20260504222955 | 20 | 200 | 3.2 | 9.7 | 0.00 | 0.00 | 0.00 | 59 | 1013.0 |
| 20260504221955 | 17 | 221 | 1.6 | 6.4 | 0.00 | 0.00 | 0.00 | 68 | 1013.2 |
| 20260504220954 | 16 | 227 | 1.6 | 4.8 | 0.00 | 0.00 | 0.00 | 68 | 1013.4 |
| 20260504215954 | 16 | 221 | 3.2 | 9.7 | 0.00 | 0.00 | 0.00 | 66 | 1013.4 |
| 20260504214954 | 18 | 198 | 3.2 | 9.7 | 0.00 | 0.00 | 0.00 | 64 | 1013.5 |
| 20260504213955 | 17 | 171 | 3.2 | 9.7 | 0.00 | 0.00 | 0.00 | 70 | 1013.4 |
| 20260504213015 | 17 | 177 | 3.2 | 9.7 | 0.00 | 0.00 | 0.00 | 66 | 1013.6 |
| 20260504211954 | 16 | 186 | 3.2 | 6.4 | 0.00 | 0.00 | 0.00 | 73 | 1013.7 |
| 20260504210954 | 15 | 211 | 1.6 | 3.2 | 0.00 | 0.00 | 0.00 | 72 | 1013.8 |
| 20260504205956 | 15 | 162 | 1.6 | 6.4 | 0.00 | 0.00 | 0.00 | 73 | 1013.7 |
| 20260504204955 | 15 | 213 | 0.0 | 3.2 | 0.00 | 0.00 | 0.00 | 73 | 1013.7 |
| 20260504203955 | 15 | 208 | 0.0 | 9.7 | 0.00 | 0.00 | 0.00 | 73 | 1013.7 |
| 20260504202954 | 14 | 188 | 0.0 | 9.7 | 0.00 | 0.00 | 0.00 | 75 | 1013.8 |
| 20260504202015 | 14 | 303 | 0.0 | 3.2 | 0.00 | 0.00 | 0.00 | 74 | 1013.7 |
| 20260504200955 | 14 | 9 | 0.0 | 1.6 | 0.00 | 0.00 | 0.00 | 75 | 1013.7 |
| 20260504195955 | 14 | 324 | 1.6 | 4.8 | 0.00 | 0.00 | 0.00 | 74 | 1013.7 |
| 20260504194954 | 14 | 285 | 0.0 | 3.2 | 0.00 | 0.00 | 0.00 | 74 | 1013.8 |
| 20260504193954 | 15 | 260 | 1.6 | 3.2 | 0.00 | 0.00 | 0.00 | 72 | 1013.7 |
| 20260504192955 | 15 | 292 | 1.6 | 4.8 | 0.00 | 0.00 | 0.00 | 71 | 1013.7 |
| 20260504192009 | 16 | 207 | 1.6 | 3.2 | 0.00 | 0.00 | 0.00 | 69 | 1013.6 |
| 20260504190959 | 15 | 167 | 3.2 | 8.0 | 0.00 | 0.00 | 0.00 | 71 | 1013.7 |
| 20260504185955 | 14 | 141 | 4.8 | 12.9 | 0.00 | 0.00 | 0.00 | 72 | 1013.8 |
| 20260504184954 | 14 | 150 | 3.2 | 11.3 | 0.00 | 0.00 | 0.00 | 72 | 1013.8 |
| 20260504183956 | 14 | 190 | 1.6 | 6.4 | 0.00 | 0.00 | 0.00 | 71 | 1013.8 |
| 20260504183014 | 14 | 156 | 1.6 | 4.8 | 0.00 | 0.00 | 0.00 | 75 | 1013.8 |
| 20260504181954 | 15 | 170 | 1.6 | 8.0 | 0.00 | 0.00 | 0.00 | 76 | 1013.7 |
| 20260504180954 | 14 | 150 | 4.8 | 9.7 | 0.00 | 0.00 | 0.00 | 74 | 1013.7 |
| 20260504175955 | 14 | 136 | 3.2 | 11.3 | 0.00 | 0.00 | 0.00 | 74 | 1013.5 |
| 20260504174955 | 13 | 131 | 4.8 | 11.3 | 0.00 | 0.00 | 0.00 | 75 | 1013.4 |
| 20260504173954 | 13 | 127 | 1.6 | 4.8 | 0.00 | 0.00 | 0.00 | 77 | 1013.3 |
| 20260504172954 | 13 | 170 | 3.2 | 9.7 | 0.00 | 0.00 | 0.00 | 77 | 1013.3 |
| 20260504171955 | 14 | 157 | 1.6 | 6.4 | 0.00 | 0.00 | 0.00 | 75 | 1013.3 |
| 20260504170954 | 15 | 172 | 3.2 | 9.7 | 0.00 | 0.00 | 0.00 | 74 | 1013.2 |